Location: *
(43.9900°N, 3.4811°E)
Time: 18:33:26
(UTC+00:00)

Meteor 1-11 Rocket - Pass Details

Date: 25 August 2019
Orbit: 831 x 916 km, 81.2° (Epoch: 15 October)

Event Time Altitude Azimuth Distance (km) Brightness Sun altitude
Rises 19:51:42 0° 181° (S) 3,513 6.6 -13.6°
Reaches altitude 10° 19:54:09 10° 179° (S) 2,584 5.9 -14.0°
Maximum altitude 20:00:02 71° 97° (E) 968 3.8 -14.9°
Drops below altitude 10° 20:05:59 10° 15° (NNE) 2,618 6.5 -15.8°
Sets 20:08:29 0° 13° (NNE) 3,562 7.2 -16.1°
